Hourly Data Report for April 07, 2016

All times are specified in Local Standard Time (LST). Add 1 hour to adjust for Daylight Saving Time where and when it is observed.

EMERSON AUTO
MANITOBA

49°00'00.000" N
97°14'15.000" W
242.00 m
5020881
71560
WEX

Download Data

Hourly Data (April 2016)
Hourly Data Report for April 7, 2016
Temp Definition
°C
Dew Point Temp Definition
°C
Rel Hum Definition
%
Wind Dir Definition
10's deg

Wind Spd Definition
km/h
Visibility Definition
km
Stn Press Definition
kPa
Hmdx Definition


Wind Chill Definition


Weather Definition


TIME
00:00 0.5 0.5 100 18 19   97.72     LegendNANA
01:00 0.8 0.8 100 18 14   97.66     LegendNANA
02:00 0.7 0.7 100 21 12   97.67     LegendNANA
03:00 1.3 1.3 100 27 16   97.71     LegendNANA
04:00 0.9 0.3 96 33 36   97.78     LegendNANA
05:00 0.4 0.0 97 33 37   97.86     LegendNANA
06:00 0.2 -0.1 98 33 42   97.96     LegendNANA
07:00 -0.4 -0.6 98 33 47   98.05   -8 LegendNANA
08:00 -0.5 -0.7 98 33 44   98.16   -8 LegendNANA
09:00 -0.5 -0.8 98 33 34   98.27   -8 LegendNANA
10:00 -0.5 -1.0 96 33 32   98.40   -7 LegendNANA
11:00 -0.3 -0.9 96 34 37   98.49   -8 LegendNANA
12:00 1.2 -0.3 90 34 44   98.58     LegendNANA
13:00 2.0 0.0 87 34 43   98.66     LegendNANA
14:00 2.4 -0.5 81 34 44   98.73     LegendNANA
15:00 1.8 -2.1 75 34 42   98.77     LegendNANA
16:00 2.1 -2.0 74 34 40   98.83     LegendNANA
17:00 2.3 -2.3 72 34 40   98.85     LegendNANA
18:00 1.2 -2.9 74 34 30   98.90     LegendNANA
19:00 0.3 -2.9 79 35 25   98.91     LegendNANA
20:00 -0.5 -2.9 84 34 39   98.95   -8 LegendNANA
21:00 -1.6 -3.6 86 34 37   99.01   -9 LegendNANA
22:00 -2.6 -4.4 88 34 38   99.04   -11 LegendNANA
23:00 -3.1 -4.9 87 34 40   99.06   -12 LegendNANA

Notes on Data Quality.

Legend

  • E = Estimated
  • M = Missing
  • NA = Not Available
  • ‡ = Partner data that is not subject to review by the National Climate Archives
Date modified: